Regional Weather Roundup
Issued by NWS

Home | Current Version | Previous Version | Text Only | Print | Product List | Glossary Off
Versions: 1 2 3 4 5 6 7 8 9 10 11 12 13 14 15 16 17 18 19 20 21 22 23 24 25 26 27 28 29 30 31 32 33 34 35 36 37 38 39 40 41 42 43 44 45 46 47 48 49 50

000
ASUS43 KDTX 240401
RWRMI
MICHIGAN HOURLY REGIONAL WEATHER ROUNDUP
NATIONAL WEATHER SERVICE DETROIT/PONTIAC MI
1200 AM EDT MON APR 24 2017

NOTE: "FAIR" INDICATES FEW OR NO CLOUDS BELOW 12,000 FEET WITH NO
SIGNIFICANT WEATHER AND/OR OBSTRUCTION TO VISIBILITY.

MIZ047>049-052>055-059>063-066>070-074>076-081>083-240500-
SOUTHEAST LOWER MICHIGAN

CITY           SKY/WX    TMP DP  RH WIND       PRES   REMARKS
ADRIAN         CLEAR     48  34  58 NE3       30.06F
ALMA           CLEAR     45  39  81 NE9       30.11S
ANN ARBOR      CLEAR     43  38  82 CALM      30.07S
BAD AXE        CLOUDY    38  36  91 NE3       30.12S
CARO           CLOUDY    42  37  83 NE3       30.10F
DETROIT        PTCLDY    52  32  46 CALM      30.08S
FLINT          CLEAR     46  39  76 E13       30.10R
GROSSE ILE     CLEAR     47  38  70 NE3       30.06F
HILLSDALE      CLEAR     45  34  65 E5        30.05F
HOWELL         CLEAR     51  33  49 CALM      30.07R

CITY           SKY/WX    TMP DP  RH WIND       PRES   REMARKS
JACKSON        CLEAR     50  36  58 S3        30.06S
LAMBERTVILLE   CLEAR     43  39  84 CALM      30.06F
LANSING        CLEAR     49  42  77 N7        30.08S
LAPEER         FAIR      42  37  81 CALM      30.10R
MASON          CLEAR     48  40  73 N3        30.06S
MONROE         CLEAR     43  38  83 N5        30.05F
MT. CLEMENS    CLEAR     42  39  91 N6        30.08S
PONTIAC        PTCLDY    49  36  61 E6        30.07R
PORT HOPE        N/A     41  36  82 N12       30.11F
PORT HURON     CLEAR     39  36  87 N5        30.10S
TRI CITIES     CLEAR     45  41  86 NE9       30.11F
MIDLAND        FAIR      45  35  70 NE5       30.11F
TROY           CLEAR     52  37  55 NE8       30.10S
SAGINAW HB     PTCLDY    43  36  75 NE7       30.11S
$$
MIZ043>046-050>051-056>058-064>065-071>073-077>080-240500-
SOUTHWEST LOWER MICHIGAN

CITY           SKY/WX    TMP DP  RH WIND       PRES   REMARKS
BATTLE CREEK   CLEAR     51  35  54 CALM      30.06F
BENTON HARBOR  CLEAR     41  33  73 CALM      30.04F
BIG RAPIDS     CLEAR     45  36  71 SE5       30.09S
COLDWATER      CLEAR     45  39  80 CALM      30.05F
FREMONT        FAIR      46  35  66 E3        30.06S
HOLLAND        CLEAR     45  36  70 CALM      30.06F
GRAND RAPIDS   PTCLDY    48  38  68 NE9       30.06F
IONIA          FAIR      47  40  78 NE9       30.07F
KALAMAZOO      CLEAR     52  31  44 CALM      30.05F
LUDINGTON      PTCLDY    44  35  72 E6        30.07S
MARSHALL       CLEAR     49  35  57 CALM      30.06S
MOUNT PLEASANT CLEAR     43  34  71 E6        30.10F
MUSKEGON       CLOUDY    44  39  82 CALM      30.06F
SOUTH HAVEN    CLEAR     42  34  72 CALM      30.05F
$$
MIZ016>042-240500-
NORTHERN LOWER MICHIGAN

CITY           SKY/WX    TMP DP  RH WIND       PRES   REMARKS
ALPENA         MOCLDY    38  28  67 N7        30.16S WCI  33
BEAVER ISLAND  PTCLDY    33  25  73 NE5       30.17R WCI  28
BELLAIRE       PTCLDY    38  25  58 CALM      30.14F
CADILLAC       PTCLDY    37  28  71 NE5       30.09S WCI  33
CHARLEVOIX     CLOUDY    37  28  69 NE3       30.18S
FRANKFORT      CLOUDY    40  24  53 E7        30.11F
GAYLORD        CLOUDY    40  25  55 NE6       30.12S
GRAYLING       CLEAR     39  28  66 E5        30.13S
HARBOR SPRINGS CLOUDY    37  24  59 NE7       30.15S WCI  32
HOUGHTON LAKE  CLEAR     42  31  64 E9        30.12R
MANISTEE       CLOUDY    40  28  62 E8        30.10S WCI  34
OSCODA         PTCLDY    42  33  71 N6        30.13S
PELLSTON       CLOUDY    36  23  59 NE5       30.16S WCI  32
ROGERS CITY    CLOUDY    35  28  75 N5        30.17F WCI  31
TRAVERSE CITY  CLOUDY    40  24  53 N8        30.13F WCI  34
$$
MIZ007>008-015-240500-
EASTERN UPPER MICHIGAN

CITY           SKY/WX    TMP DP  RH WIND       PRES   REMARKS
KINROSS        MOCLDY    31  26  82 N9        30.17S WCI  23
NEWBERRY       CLOUDY    30  24  78 N8        30.16F WCI  23
S. S. MARIE    CLOUDY    34  26  72 NW5       30.17S WCI  30
MUNISING         N/A     33  24  69 NE8       30.17F WCI  26
$$
MIZ004>006-011>014-085-240500-
CENTRAL UPPER MICHIGAN

CITY           SKY/WX    TMP DP  RH WIND       PRES   REMARKS
MANISTIQUE     CLOUDY    31  24  73 N9        30.17F WCI  23
ESCANABA       CLOUDY    33  22  63 N6        30.18S WCI  28
MENOMINEE      CLOUDY    36  25  64 NE10G20   30.15S WCI  28
SAWYER-GWINN   PTCLDY    30  22  71 E3        30.15F
$$
MIZ001>003-009>011-084-240500-
WESTERN UPPER MICHIGAN

CITY           SKY/WX    TMP DP  RH WIND       PRES   REMARKS
IRON MOUNTAIN  PTCLDY    33  18  53 E6        30.13F WCI  28
HOUGHTON       CLOUDY    31  20  63 SE8       30.14F WCI  23
COPPER HARBOR    N/A     32  19  58 SE3       30.17F
IRONWOOD       PTCLDY    34  26  72 E15       30.07F WCI  24
$$

ABBREVIATIONS USED IN REMARKS
   TC - TEMPERATURE IN CELSIUS
  WCI - WIND CHILL INDEX
   HX - HEAT INDEX
  VSB - VISIBILITY





USA.gov is the U.S. government's official web portal to all federal, state and local government web resources and services.